Probability
0 0 0 0 0 0 0 0 0 0 0 0 0 0 0 0 0 0 0 0 0 0 0 0 0 1 0 0 0 0 0 0 0 0 0 0 0 0 0 0 0 0 0 0 0 0 0 0 0
0 0 0 0 0 0 0 0 0 0 0 0 0 0 0 0 0 0 0 0 0 0 0 0 1 2 1 0 0 0 0 0 0 0 0 0 0 0 0 0 0 0 0 0 0 0 0 0 0
0 0 0 0 0 0 0 0 0 0 0 0 0 0 0 0 0 0 0 0 0 0 0 1 2 3 2 1 0 0 0 0 0 0 0 0 0 0 0 0 0 0 0 0 0 0 0 0 0
0 0 0 0 0 0 0 0 0 0 0 0 0 0 0 0 0 0 0 0 0 0 0 1 2 3 2 1 0 0 0 0 0 0 0 0 0 0 0 0 0 0 0 0 0 0 0 0 0
0 0 0 0 0 0 0 0 0 0 0 0 0 0 0 0 1 1 0 0 0 0 0 1 1 2 2 1 0 0 0 0 0 0 0 0 0 0 0 0 0 0 0 0 0 0 0 0 0
0 0 0 0 0 0 0 0 0 0 0 0 0 0 0 0 1 1 1 0 0 0 1 1 1 1 1 0 0 0 0 0 0 0 0 0 0 0 0 0 0 0 0 0 0 0 0 0 0
0 0 0 0 0 0 0 0 0 0 0 0 0 0 0 0 1 2 1 0 0 0 1 2 2 0 0 0 0 0 0 0 0 0 0 0 0 0 0 0 0 0 0 0 0 0 0 0 0
0 0 0 0 0 0 0 0 0 0 0 0 0 0 0 0 1 2 2 1 0 0 1 2 1 0 0 0 0 0 0 0 0 0 0 0 0 0 0 0 0 0 0 0 0 0 1 0 0
0 0 0 0 0 0 0 0 0 0 0 0 0 0 0 0 0 1 2 2 1 0 1 1 1 1 1 1 0 0 0 0 0 0 0 0 0 0 0 0 0 0 0 0 0 0 0 0 0
0 0 0 0 0 0 0 0 0 0 0 0 0 0 0 0 0 0 1 1 1 1 1 1 1 1 2 1 1 1 1 1 0 0 0 0 0 0 0 0 0 0 0 0 0 0 0 0 0
0 0 0 0 0 0 0 0 0 0 0 0 0 0 0 0 0 0 0 0 0 1 1 0 0 1 1 1 1 2 2 2 1 0 0 0 0 0 0 0 0 0 0 0 0 0 0 0 0
0 0 0 0 0 0 0 0 0 0 0 0 0 0 0 0 0 0 0 0 0 0 0 0 0 0 0 0 1 2 3 3 2 1 0 0 0 0 0 0 0 0 0 0 0 0 0 0 0
0 0 0 0 0 0 0 0 0 0 0 0 0 0 0 0 0 0 0 0 0 0 0 0 0 0 0 0 0 1 2 2 2 1 0 0 0 0 0 0 0 0 0 0 0 0 0 0 0
0 0 0 0 0 0 0 0 0 0 0 0 0 0 0 0 0 0 0 0 0 0 0 0 0 0 0 0 0 0 1 1 1 1 0 0 0 0 0 0 0 0 0 0 0 0 0 0 0
0 0 0 0 0 0 0 0 0 0 0 0 0 0 0 0 0 0 0 0 0 0 0 0 0 0 0 0 0 0 0 0 0 0 0 0 0 0 0 0 0 0 0 0 0 0 0 0 0
0 0 0 0 0 0 0 0 0 0 0 0 0 0 0 0 0 0 0 0 0 0 0 0 0 0 0 0 0 0 0 0 0 0 0 0 0 0 0 0 0 0 0 0 0 0 0 0 0
0 0 0 0 0 0 0 0 0 0 0 0 0 0 0 0 0 0 0 0 0 0 0 0 0 0 0 0 0 0 0 0 0 0 0 0 0 0 0 0 0 0 0 0 0 0 0 0 0
0 0 0 0 0 0 0 0 0 0 0 0 0 0 0 0 0 0 0 0 0 0 0 0 0 0 0 0 0 0 0 0 0 0 0 0 0 0 0 0 0 0 0 0 0 0 0 0 0
0 0 0 0 0 0 0 0 0 0 0 0 0 0 0 0 0 0 0 0 0 0 0 0 0 0 0 0 0 0 0 0 0 0 0 0 0 0 0 0 0 0 0 0 0 0 0 0 0
0 0 0 0 0 0 0 0 0 0 0 0 0 0 0 0 0 0 0 0 0 0 0 0 0 0 0 0 0 0 0 0 0 0 0 0 0 0 0 0 0 0 0 0 0 0 0 0 0
0 0 0 0 0 0 0 0 0 0 0 0 0 0 0 0 0 0 0 0 0 0 0 0 0 0 0 0 0 0 0 0 0 0 0 0 0 0 0 0 0 0 0 0 0 0 0 0 0
0 0 0 0 0 0 0 0 0 0 0 0 0 0 0 0 0 0 0 0 0 0 0 0 0 0 0 0 0 0 0 0 0 0 0 0 0 0 0 0 0 0 0 0 0 0 0 0 0
0 0 0 0 0 0 0 0 0 0 0 0 0 0 0 0 0 0 0 0 0 0 0 0 0 0 0 0 0 0 0 0 0 0 0 0 0 0 0 0 0 0 0 0 0 0 0 0 0
0 0 0 0 0 0 0 0 0 0 0 0 0 0 0 0 0 0 0 0 0 0 0 0 0 0 0 0 0 0 0 0 0 0 0 0 0 0 0 0 0 0 0 0 0 0 0 0 0
0 0 0 0 0 0 0 0 0 0 0 0 0 0 0 0 0 0 0 0 0 0 0 0 0 0 0 0 0 0 0 0 0 0 0 0 0 0 0 0 0 0 0 0 0 0 0 0 0
0 0 0 0 0 0 0 0 0 0 0 0 0 0 0 0 0 0 0 0 0 0 0 0 0 0 0 0 0 0 0 0 0 0 0 0 0 0 0 0 0 0 0 0 0 0 0 0 0
0 0 0 0 0 0 0 0 0 0 0 0 0 0 0 0 0 0 0 0 0 0 0 0 0 0 0 0 0 0 0 0 0 0 0 0 0 0 0 0 0 0 0 0 0 0 0 0 0
0 0 0 0 0 0 0 0 0 0 0 0 0 0 0 0 0 0 0 0 0 0 0 0 0 0 0 0 0 0 0 0 0 0 0 0 0 0 0 0 0 0 0 0 0 0 0 0 0
0 0 0 0 0 0 0 0 0 0 0 0 0 0 0 0 0 0 0 0 0 0 0 0 0 0 0 0 0 0 0 0 0 0 0 0 0 0 0 0 0 0 0 0 0 0 0 0 0
0 0 0 0 0 0 0 0 0 0 0 0 0 0 0 0 0 0 0 0 0 0 0 0 0 0 0 0 0 0 0 0 0 0 0 0 0 0 0 0 0 0 0 0 0 0 0 0 0
Wind_Speed
3 0 2 2 4 4 7 4 3 3 3 1 1 1 2 1 1 2 4 2 3 4 5 5 4 7 8 8 8 8 8 8 8 8 8 8 8 8 8 8 8 8 8 8 9 9 9 9 9
2 1 2 3 5 7 6 5 5 2 1 2 2 1 2 1 2 3 2 1 3 5 5 5 5 7 8 8 7 7 7 7 7 7 7 7 7 7 7 7 7 7 8 8 8 9 9 9 9
1 1 2 3 6 8 6 4 4 2 3 2 2 1 0 1 2 2 1 2 4 5 5 5 5 7 8 8 7 7 6 6 7 7 7 7 7 7 7 7 7 7 7 8 8 9 9 9 8
2 2 2 5 8 5 4 2 3 4 3 1 2 2 2 3 2 1 2 4 5 5 5 6 6 7 8 8 8 7 7 7 7 7 7 7 7 7 7 7 6 7 7 8 8 9 9 9 8
1 3 5 6 8 4 3 1 4 5 4 2 3 2 3 3 3 3 4 4 5 6 5 6 6 6 7 7 7 6 6 7 7 6 7 7 7 7 7 7 7 7 8 8 8 9 9 8 8
2 3 6 9 9 5 4 3 4 4 3 3 3 2 3 3 3 3 4 4 4 5 5 5 6 6 6 6 6 6 6 6 6 6 6 6 6 7 7 7 7 7 8 8 9 9 9 9 8
3 4 6 7 7 7 4 3 5 5 5 3 2 3 3 3 2 3 4 4 4 5 5 4 5 5 5 5 5 5 5 6 6 7 6 6 6 6 6 6 7 7 8 9 9 9 8 8 8
1 3 6 7 8 7 4 4 2 4 4 1 3 4 2 3 3 3 4 4 4 4 4 4 4 4 4 4 5 5 5 6 6 7 7 6 6 6 6 6 7 8 8 9 9 9 9 8 8
3 5 8 8 7 5 4 4 2 2 3 3 3 2 2 5 6 5 4 3 4 4 3 3 3 3 3 3 4 4 5 5 5 5 6 4 3 3 4 6 7 8 8 8 9 9 9 8 8
3 7 8 4 4 4 4 5 4 4 5 5 4 3 3 6 6 6 5 5 4 5 4 3 3 3 3 3 3 2 3 3 3 3 4 2 2 3 4 7 8 8 8 8 8 8 7 4 4
1 4 4 4 3 4 4 4 4 6 7 8 7 6 6 7 7 7 6 6 6 5 4 4 3 3 3 2 2 1 1 2 2 3 3 3 3 3 3 3 4 4 5 4 5 4 3 3 3
2 2 3 3 2 3 4 4 5 8 8 4 5 5 7 9 9 8 7 6 5 5 5 4 4 4 3 3 2 2 1 1 1 2 3 3 2 2 2 2 2 2 2 3 2 2 3 3 4
4 3 2 3 3 4 4 6 5 8 7 4 3 6 8 9 8 7 6 6 5 5 5 5 5 4 4 3 2 2 2 2 2 2 3 3 3 2 2 2 2 2 2 2 2 2 3 3 3
2 3 4 3 3 3 5 6 6 8 5 5 6 7 8 9 8 7 7 7 7 6 6 5 5 5 5 4 3 3 2 2 2 2 3 4 3 3 3 3 2 2 2 2 2 2 2 2 2
2 3 4 4 4 3 4 8 9 7 5 6 7 8 8 8 8 9 9 8 8 7 6 6 6 6 6 5 4 3 2 2 2 2 3 4 4 4 3 3 3 2 3 3 3 3 2 2 2
3 4 5 3 3 3 5 10 6 5 6 8 8 8 7 8 9 8 8 8 8 7 7 6 5 5 6 5 4 3 3 3 2 2 3 3 4 4 4 3 3 3 3 3 3 2 2 2 2
3 5 6 4 3 3 7 11 6 5 7 9 9 8 8 8 9 8 8 8 8 8 8 7 7 6 6 6 4 4 3 3 2 2 3 4 4 5 4 3 3 3 3 3 3 2 2 2 2
4 5 5 6 3 5 9 12 10 7 9 11 10 9 9 9 9 8 8 8 8 8 8 7 7 6 6 5 4 3 4 3 3 3 3 4 4 5 5 4 4 4 3 3 3 3 2 2 2
3 5 7 5 3 6 11 14 13 9 9 11 11 10 10 9 8 6 7 7 7 8 8 8 8 7 6 5 5 4 4 4 4 4 4 5 5 6 5 4 5 4 4 4 4 4 4 3 2
5 6 6 5 2 5 9 14 12 10 11 11 11 10 9 8 7 6 6 6 8 9 9 8 8 7 7 6 5 3 3 4 4 3 4 5 5 6 5 6 5 5 4 5 5 5 3 2 2
7 7 6 5 4 4 7 9 8 7 8 9 9 9 9 8 8 7 7 7 8 9 9 8 8 8 7 7 4 3 3 2 3 5 5 5 6 6 6 6 5 6 5 5 6 6 5 4 3
6 4 5 5 4 3 3 6 5 6 8 9 9 9 9 8 7 7 7 7 8 9 8 8 8 8 8 7 7 8 6 6 6 5 5 5 6 7 7 7 7 6 5 6 6 6 5 5 4
3 1 3 4 3 4 3 6 6 3 7 8 9 9 9 8 7 7 8 8 8 8 8 8 8 8 8 8 8 9 8 6 4 5 6 6 6 7 7 7 7 6 6 6 7 6 6 5 5
2 2 2 2 3 5 4 6 7 4 6 5 5 6 6 6 6 6 6 6 6 6 7 7 7 8 8 8 8 9 9 8 7 7 6 6 5 6 7 7 7 7 6 6 7 7 7 6 6
3 2 1 2 3 4 2 6 9 4 3 4 5 5 5 4 5 5 5 5 5 6 7 7 8 8 8 8 9 9 9 9 9 8 8 7 5 6 8 7 7 7 7 7 6 7 7 7 7
5 4 3 3 4 3 3 8 7 2 3 4 4 4 3 3 3 4 5 5 5 6 7 7 8 8 8 8 9 9 9 7 7 8 7 7 6 6 7 8 7 7 7 7 7 6 6 6 6
4 4 1 1 0 4 6 7 8 3 3 2 2 2 2 2 3 3 4 4 5 5 6 7 7 7 7 8 8 8 8 8 8 8 8 6 6 5 7 7 7 7 7 7 7 6 7 6 6
1 3 3 4 3 5 6 6 5 3 3 2 2 3 3 3 3 3 3 3 4 4 5 5 6 6 6 6 6 5 7 7 7 7 8 8 7 7 7 7 7 7 7 7 7 6 6 6 6
5 4 4 3 3 4 5 5 2 3 3 3 4 4 3 3 3 3 3 3 3 3 3 4 4 5 5 5 5 5 5 6 6 6 7 7 7 7 8 8 8 7 7 7 7 7 7 7 7
4 6 7 5 5 5 4 7 1 1 3 4 5 5 4 4 3 3 2 2 2 2 3 3 4 4 5 4 4 5 5 5 5 6 6 6 7 7 7 7 7 7 7 7 8 8 8 8 8
Wind_Direction
328 308 218 214 216 223 229 207 196 170 165 106 78 220 217 183 267 55 63 113 130 153 157 151 132 122 117 111 107 103 102 101 99 98 96 92 88 84 82 79 76 76 77 78 80 81 80 78 79
318 247 208 215 232 228 221 205 199 183 105 122 132 181 178 133 44 63 90 121 146 147 151 151 119 116 114 110 106 104 102 102 100 99 99 95 92 88 85 83 79 79 79 81 82 81 81 80 78
261 269 220 213 228 238 223 183 188 133 121 157 142 121 282 94 96 94 82 155 144 138 144 132 112 114 112 109 106 106 105 103 102 100 101 100 95 91 87 82 80 80 82 84 84 81 79 77 76
219 183 208 227 225 237 251 194 172 156 154 150 176 148 125 55 44 77 121 145 136 133 133 127 111 113 112 111 108 104 105 101 100 97 96 96 93 91 87 84 82 83 86 87 85 84 79 76 73
231 211 211 223 230 226 240 235 182 185 177 168 192 185 146 104 69 103 127 137 135 133 130 128 108 108 111 112 112 107 108 106 102 97 94 92 92 88 86 84 83 83 86 86 85 83 82 78 75
191 213 225 227 224 217 217 209 196 205 181 169 195 193 144 117 104 113 125 129 134 131 128 125 105 97 100 104 105 104 105 105 103 99 95 91 91 88 85 86 87 88 87 85 85 82 82 80 75
219 214 234 233 226 221 204 197 214 217 209 194 214 200 153 146 116 126 130 130 135 131 129 127 129 118 101 89 89 94 98 100 96 94 89 83 83 84 76 76 87 91 89 88 86 83 81 80 76
262 206 220 226 228 227 189 190 219 232 229 155 211 221 182 146 132 132 130 131 137 133 133 133 133 132 135 126 93 88 93 96 94 90 84 78 80 82 72 77 84 88 88 88 86 83 80 77 72
231 225 226 222 226 223 184 199 190 240 204 195 219 275 48 126 138 136 136 140 150 146 145 145 146 141 136 133 117 113 104 100 105 102 93 98 108 106 94 78 77 84 84 85 84 83 80 76 72
224 230 231 235 238 233 203 218 202 202 221 223 219 211 142 149 160 167 173 175 180 179 172 163 165 153 147 138 139 147 140 134 140 136 132 129 114 99 97 81 73 75 78 80 77 79 83 78 80
225 241 231 238 252 246 221 223 210 218 235 233 231 207 178 177 182 189 194 193 193 192 187 182 178 171 162 157 153 146 142 139 147 144 142 137 126 121 116 111 104 97 91 87 85 85 82 76 72
193 254 251 245 250 245 231 218 218 231 248 271 247 205 186 192 196 199 201 199 195 198 196 190 187 182 177 172 164 158 148 146 150 151 149 149 137 135 132 126 125 119 110 103 93 82 79 77 73
205 235 245 254 250 252 242 235 242 242 250 253 222 198 200 206 209 207 204 201 198 202 203 199 199 190 184 173 167 166 168 163 149 163 162 158 153 152 144 139 134 130 129 129 114 100 92 83 75
189 220 238 241 238 240 251 259 245 246 232 228 218 215 214 216 214 209 206 207 207 207 205 203 205 199 188 182 178 178 177 169 173 170 168 168 166 161 155 152 149 143 138 131 127 117 106 92 80
177 229 240 233 241 247 264 260 234 239 223 234 233 230 228 227 219 215 211 210 209 206 202 205 205 202 194 194 189 183 179 179 188 180 175 178 176 171 164 163 159 156 148 141 135 125 120 105 92
202 230 240 212 227 235 244 260 238 213 224 241 240 235 231 231 228 224 219 214 210 205 201 205 202 204 199 196 192 187 186 186 189 188 180 184 184 176 170 167 166 164 161 155 147 143 135 122 106
205 241 249 238 205 227 233 260 254 212 231 243 242 238 235 237 235 229 222 214 209 205 201 200 199 202 199 192 192 189 189 193 194 196 191 185 188 184 177 176 167 167 165 162 157 155 150 139 114
227 239 245 247 218 237 243 256 263 237 238 248 247 242 237 236 236 230 223 214 207 204 198 197 197 202 197 186 187 192 193 197 201 202 200 192 189 190 183 178 171 170 169 170 168 159 145 142 127
238 238 257 261 250 248 254 264 266 255 242 246 245 241 239 241 241 228 220 210 204 201 199 197 197 197 195 188 189 194 202 201 204 206 205 202 196 190 191 183 178 179 179 179 176 165 155 143 142
230 245 262 274 266 258 272 270 265 249 242 241 245 244 242 243 238 223 214 207 205 204 202 201 203 198 202 201 197 205 203 205 208 205 211 210 200 196 195 192 186 184 182 179 180 175 165 157 179
232 241 253 273 297 249 285 268 242 238 240 243 242 241 240 236 235 224 215 214 210 210 207 205 206 202 204 203 192 182 189 198 203 211 212 213 205 199 198 195 192 189 187 186 187 188 185 178 186
241 232 247 254 272 281 295 285 252 238 244 236 236 236 239 237 234 231 222 221 218 217 211 211 209 205 202 200 201 198 202 209 213 210 207 206 206 202 202 197 194 194 194 191 192 197 199 189 192
231 151 228 236 243 270 240 262 271 229 245 243 238 237 240 237 234 231 227 225 225 219 211 208 208 208 203 207 211 212 216 219 211 205 208 208 206 206 204 200 196 196 197 197 196 196 202 200 202
159 152 167 201 228 254 229 239 271 231 243 258 244 239 242 242 240 240 236 230 227 217 209 207 207 211 206 209 216 218 219 215 208 207 209 211 206 207 204 203 199 200 199 201 202 198 203 204 205
188 199 239 230 228 247 164 233 256 269 258 259 263 262 261 251 243 241 237 229 227 219 211 210 212 215 211 212 218 222 224 220 216 213 214 211 207 211 206 203 203 202 201 203 204 202 206 206 205
195 215 218 250 259 282 192 240 257 294 288 275 274 269 271 258 248 243 238 233 233 227 217 215 217 218 213 214 220 220 221 223 223 220 217 213 213 215 208 206 207 206 203 202 203 206 208 205 206
176 202 259 173 353 276 255 264 281 250 272 277 285 284 276 272 273 265 258 245 240 232 225 222 222 223 220 219 221 220 219 222 225 221 216 216 216 214 210 208 209 208 206 205 202 209 207 203 208
258 158 165 194 232 264 272 259 258 265 276 297 310 300 292 297 300 288 276 268 257 247 237 229 227 229 231 229 227 225 223 225 225 219 216 215 214 212 207 206 209 208 206 206 206 210 207 204 207
171 177 189 186 234 241 273 268 220 242 286 298 305 304 297 294 286 283 281 277 277 271 252 239 235 236 236 233 230 230 229 224 223 220 218 215 212 209 208 206 208 209 209 207 208 211 205 207 209
224 208 189 203 213 221 253 269 104 264 316 313 312 320 315 311 304 297 297 300 297 289 268 251 245 243 242 236 228 229 232 225 225 226 221 216 215 213 211 207 207 209 211 209 209 212 210 210 211